Hourly Weather Kragero

Today, 24 October, Saturday

Time Temperature Precipitation Wind Pressure Humidity
00:00 +6°C° 0.4 mm 2 mps 747 mmHg 94%
01:00 +6°C° 0.4 mm 2 mps 746 mmHg 95%
02:00 +6°C° 0.3 mm 2 mps 746 mmHg 95%
03:00 +6°C° 0.3 mm 2 mps 746 mmHg 95%
04:00 +6°C° 0.3 mm 2 mps 746 mmHg 95%
05:00 +6°C° 0 mm 2 mps 746 mmHg 95%
06:00 +7°C° 0 mm 1 mps 746 mmHg 95%
07:00 +7°C° 0 mm 1 mps 746 mmHg 95%
08:00 +7°C° 0 mm 1 mps 747 mmHg 93%
09:00 +7°C° 0 mm 2 mps 747 mmHg 90%
10:00 +8°C° 0 mm 2 mps 747 mmHg 88%
11:00 +8°C° 0 mm 3 mps 747 mmHg 85%
12:00 +9°C° 0 mm 3 mps 748 mmHg 82%
13:00 +10°C° 0 mm 3 mps 748 mmHg 80%
14:00 +9°C° 0 mm 3 mps 748 mmHg 81%
15:00 +8°C° 0 mm 4 mps 748 mmHg 83%
16:00 +8°C° 0 mm 4 mps 748 mmHg 85%
17:00 +7°C° 0 mm 4 mps 748 mmHg 87%
18:00 +8°C° 0 mm 3 mps 748 mmHg 90%
19:00 +7°C° 0 mm 3 mps 748 mmHg 92%
20:00 +7°C° 0 mm 3 mps 747 mmHg 92%
21:00 +7°C° 0 mm 4 mps 747 mmHg 92%
22:00 +8°C° 0 mm 4 mps 747 mmHg 91%
23:00 +8°C° 0.3 mm 6 mps 746 mmHg 92%

Tomorrow, 25 October, Sunday

Time Temperature Precipitation Wind Pressure Humidity
00:00 +8°C° 0.3 mm 7 mps 746 mmHg 93%
01:00 +9°C° 0.3 mm 8 mps 745 mmHg 94%
02:00 +8°C° 0.5 mm 9 mps 744 mmHg 94%
03:00 +10°C° 0.5 mm 9 mps 744 mmHg 95%
04:00 +9°C° 0.5 mm 10 mps 743 mmHg 95%
05:00 +11°C° 1 mm 10 mps 742 mmHg 95%
06:00 +11°C° 1 mm 10 mps 741 mmHg 95%
07:00 +11°C° 1 mm 11 mps 741 mmHg 95%
08:00 +11°C° 1.6 mm 11 mps 740 mmHg 94%
09:00 +11°C° 1.6 mm 11 mps 740 mmHg 94%
10:00 +10°C° 1.6 mm 12 mps 740 mmHg 93%
11:00 +11°C° 1.9 mm 11 mps 740 mmHg 90%
12:00 +11°C° 1.9 mm 11 mps 740 mmHg 88%
13:00 +11°C° 1.9 mm 11 mps 741 mmHg 85%
14:00 +11°C° 0.1 mm 9 mps 741 mmHg 84%
15:00 +10°C° 0.1 mm 8 mps 742 mmHg 84%
16:00 +10°C° 0.1 mm 7 mps 742 mmHg 83%
17:00 +9°C° 0 mm 6 mps 743 mmHg 83%
18:00 +8°C° 0 mm 6 mps 744 mmHg 83%
19:00 +7°C° 0 mm 5 mps 744 mmHg 83%
20:00 +7°C° 0.1 mm 5 mps 745 mmHg 86%
21:00 +6°C° 0.1 mm 4 mps 745 mmHg 89%
22:00 +7°C° 0.1 mm 3 mps 745 mmHg 92%
23:00 +7°C° 0.2 mm 3 mps 745 mmHg 92%

Day after tomorrow, 26 October, Monday

Time Temperature Precipitation Wind Pressure Humidity
00:00 +7°C° 0.2 mm 2 mps 745 mmHg 92%
01:00 +7°C° 0.2 mm 2 mps 745 mmHg 93%
02:00 +7°C° 0.2 mm 2 mps 745 mmHg 93%
03:00 +7°C° 0.2 mm 2 mps 745 mmHg 93%
04:00 +7°C° 0.2 mm 2 mps 746 mmHg 93%
05:00 +7°C° 0.4 mm 3 mps 746 mmHg 93%
06:00 +7°C° 0.4 mm 3 mps 746 mmHg 93%
07:00 +6°C° 0.4 mm 4 mps 746 mmHg 93%
08:00 +7°C° 0.9 mm 4 mps 746 mmHg 94%
09:00 +7°C° 0.9 mm 4 mps 746 mmHg 94%
10:00 +7°C° 0.9 mm 5 mps 746 mmHg 95%
11:00 +8°C° 1.1 mm 5 mps 746 mmHg 94%
12:00 +8°C° 1.1 mm 5 mps 746 mmHg 93%
13:00 +8°C° 1.1 mm 5 mps 745 mmHg 92%
14:00 +8°C° 0.5 mm 5 mps 745 mmHg 91%
15:00 +8°C° 0.5 mm 5 mps 745 mmHg 90%
16:00 +8°C° 0.5 mm 5 mps 745 mmHg 89%
17:00 +8°C° 0.4 mm 5 mps 745 mmHg 90%
18:00 +7°C° 0.4 mm 4 mps 746 mmHg 91%
19:00 +7°C° 0.4 mm 4 mps 746 mmHg 92%
20:00 +6°C° 0.3 mm 4 mps 746 mmHg 93%
21:00 +7°C° 0.3 mm 3 mps 746 mmHg 93%
22:00 +7°C° 0.3 mm 3 mps 746 mmHg 94%
23:00 +7°C° 0.4 mm 3 mps 746 mmHg 94%

, 27 October, Tuesday

Time Temperature Precipitation Wind Pressure Humidity
00:00 +6°C° 0.4 mm 4 mps 746 mmHg 94%
01:00 +6°C° 0.4 mm 4 mps 746 mmHg 95%
02:00 +6°C° 0.5 mm 4 mps 746 mmHg 95%
03:00 +6°C° 0.5 mm 5 mps 746 mmHg 94%
04:00 +7°C° 0.5 mm 5 mps 746 mmHg 94%
05:00 +7°C° 0.1 mm 5 mps 746 mmHg 93%
06:00 +7°C° 0.1 mm 5 mps 746 mmHg 91%
07:00 +7°C° 0.1 mm 6 mps 746 mmHg 90%
08:00 +8°C° 0.2 mm 6 mps 746 mmHg 88%
09:00 +8°C° 0.2 mm 6 mps 746 mmHg 87%
10:00 +8°C° 0.2 mm 7 mps 746 mmHg 86%
11:00 +8°C° 0.6 mm 7 mps 746 mmHg 88%
12:00 +8°C° 0.6 mm 7 mps 746 mmHg 90%
13:00 +8°C° 0.6 mm 7 mps 746 mmHg 92%
14:00 +8°C° 0.6 mm 7 mps 745 mmHg 91%
15:00 +8°C° 0.6 mm 7 mps 745 mmHg 90%
16:00 +8°C° 0.6 mm 7 mps 745 mmHg 89%
17:00 +8°C° 1.1 mm 7 mps 745 mmHg 89%
18:00 +8°C° 1.1 mm 7 mps 745 mmHg 89%
19:00 +8°C° 1.1 mm 7 mps 745 mmHg 88%
20:00 +8°C° 0.9 mm 7 mps 745 mmHg 89%
21:00 +8°C° 0.9 mm 7 mps 744 mmHg 90%
22:00 +7°C° 0.9 mm 8 mps 744 mmHg 90%
23:00 +8°C° 0.9 mm 7 mps 744 mmHg 90%

27 October, Tuesday

Time Temperature Precipitation Wind Pressure Humidity
00:00 +6°C° 0.4 mm 4 mps 746 mmHg 94%
01:00 +6°C° 0.4 mm 4 mps 746 mmHg 95%
02:00 +6°C° 0.5 mm 4 mps 746 mmHg 95%
03:00 +6°C° 0.5 mm 5 mps 746 mmHg 94%
04:00 +7°C° 0.5 mm 5 mps 746 mmHg 94%
05:00 +7°C° 0.1 mm 5 mps 746 mmHg 93%
06:00 +7°C° 0.1 mm 5 mps 746 mmHg 91%
07:00 +7°C° 0.1 mm 6 mps 746 mmHg 90%
08:00 +8°C° 0.2 mm 6 mps 746 mmHg 88%
09:00 +8°C° 0.2 mm 6 mps 746 mmHg 87%
10:00 +8°C° 0.2 mm 7 mps 746 mmHg 86%
11:00 +8°C° 0.6 mm 7 mps 746 mmHg 88%
12:00 +8°C° 0.6 mm 7 mps 746 mmHg 90%
13:00 +8°C° 0.6 mm 7 mps 746 mmHg 92%
14:00 +8°C° 0.6 mm 7 mps 745 mmHg 91%
15:00 +8°C° 0.6 mm 7 mps 745 mmHg 90%
16:00 +8°C° 0.6 mm 7 mps 745 mmHg 89%
17:00 +8°C° 1.1 mm 7 mps 745 mmHg 89%
18:00 +8°C° 1.1 mm 7 mps 745 mmHg 89%
19:00 +8°C° 1.1 mm 7 mps 745 mmHg 88%
20:00 +8°C° 0.9 mm 7 mps 745 mmHg 89%
21:00 +8°C° 0.9 mm 7 mps 744 mmHg 90%
22:00 +7°C° 0.9 mm 8 mps 744 mmHg 90%
23:00 +8°C° 0.9 mm 7 mps 744 mmHg 90%

28 October, Wednesday

Time Temperature Precipitation Wind Pressure Humidity
00:00 +8°C° 0.9 mm 7 mps 744 mmHg 90%
01:00 +8°C° 0.9 mm 7 mps 744 mmHg 89%
02:00 +8°C° 0.4 mm 7 mps 744 mmHg 90%
03:00 +7°C° 0.4 mm 6 mps 744 mmHg 91%
04:00 +7°C° 0.4 mm 6 mps 743 mmHg 92%
05:00 +6°C° 0.2 mm 7 mps 743 mmHg 91%
06:00 +6°C° 0.2 mm 7 mps 743 mmHg 89%
07:00 +8°C° 0.2 mm 7 mps 743 mmHg 88%
08:00 +7°C° 1.7 mm 8 mps 743 mmHg 89%
09:00 +7°C° 1.7 mm 8 mps 743 mmHg 89%
10:00 +7°C° 1.7 mm 8 mps 743 mmHg 90%
11:00 +9°C° 0.1 mm 7 mps 743 mmHg 84%
12:00 +9°C° 0.1 mm 6 mps 744 mmHg 79%
13:00 +9°C° 0.1 mm 5 mps 744 mmHg 73%
14:00 +10°C° 0.1 mm 4 mps 744 mmHg 77%
15:00 +8°C° 0.1 mm 4 mps 744 mmHg 80%
16:00 +8°C° 0.1 mm 4 mps 745 mmHg 84%
17:00 +8°C° 0.3 mm 4 mps 745 mmHg 86%
18:00 +7°C° 0.3 mm 5 mps 745 mmHg 88%
19:00 +7°C° 0.3 mm 5 mps 745 mmHg 90%
20:00 +7°C° 0.6 mm 6 mps 745 mmHg 90%
21:00 +8°C° 0.6 mm 6 mps 745 mmHg 90%
22:00 +8°C° 0.6 mm 7 mps 745 mmHg 90%
23:00 +8°C° 0.8 mm 7 mps 744 mmHg 90%

29 October, Thursday

Time Temperature Precipitation Wind Pressure Humidity
00:00 +8°C° 0.8 mm 6 mps 744 mmHg 90%
01:00 +8°C° 0.8 mm 6 mps 743 mmHg 90%
02:00 +8°C° 0.3 mm 6 mps 743 mmHg 90%
03:00 +8°C° 0.3 mm 6 mps 743 mmHg 91%
04:00 +8°C° 0.3 mm 6 mps 743 mmHg 92%
05:00 +8°C° 0.7 mm 6 mps 743 mmHg 92%
06:00 +8°C° 0.7 mm 6 mps 743 mmHg 92%
07:00 +8°C° 0.7 mm 6 mps 743 mmHg 92%
08:00 +8°C° 0.3 mm 6 mps 742 mmHg 91%
09:00 +8°C° 0.3 mm 6 mps 742 mmHg 91%
10:00 +8°C° 0.3 mm 6 mps 742 mmHg 91%
11:00 +8°C° 0.4 mm 7 mps 742 mmHg 91%
12:00 +9°C° 0.4 mm 7 mps 742 mmHg 91%
13:00 +9°C° 0.4 mm 8 mps 741 mmHg 91%
14:00 +9°C° 1.6 mm 8 mps 741 mmHg 90%
15:00 +9°C° 1.6 mm 7 mps 742 mmHg 89%
16:00 +9°C° 1.6 mm 7 mps 742 mmHg 89%
17:00 +9°C° 0.1 mm 7 mps 742 mmHg 89%
18:00 +8°C° 0.1 mm 7 mps 742 mmHg 88%
19:00 +8°C° 0.1 mm 7 mps 742 mmHg 88%
20:00 +8°C° 0.2 mm 7 mps 742 mmHg 90%
21:00 +8°C° 0.2 mm 6 mps 742 mmHg 91%
22:00 +8°C° 0.2 mm 6 mps 742 mmHg 92%
23:00 +8°C° 1.7 mm 6 mps 741 mmHg 94%
Show more